Tracking 25734 objects as of 26-May-2022
HD Live streaming from Space Station
objects crossing your sky now

COSMOS 1275 DEB

Track COSMOS 1275 DEB now!
10-day predictions


NORAD ID: 42181
Int'l Code: 1981-053SV
Perigee: 881.4 km
Apogee: 996.9 km
Inclination: 82.9 °
Period: 103.7 minutes
Semi major axis: 7310 km
RCS: Unknown
Launch date: June 4, 1981
Source: Commonwealth of Independent States (former USSR) (CIS)
Launch site: PLESETSK MISSILE AND SPACE COMPLEX (PKMTR)

Note: This is SATELLITE DEBRIS
aabbcc
Your satellite tracking list
Your tracking list is empty




NASA's NSSDC Master Catalog

Two Line Element Set (TLE):
1 42181U 81053SV  22144.67833672  .00002013  00000-0  16080-2 0  9991
2 42181  82.9014 128.1729 0078985  45.0765 315.6771 13.89032912872494
Source of the keplerian elements: AFSPC